Tracking 33190 objects as of 9-Feb-2026
HD Live streaming from Space Station
objects crossing your sky now

STARLINK-36350

Track STARLINK-36350 now!
10-day predictions
STARLINK-36350 is classified as:


NORAD ID: 67572
Int'l Code: 2026-016M
Perigee: 334.6 km
Apogee: 336.0 km
Inclination: 97.3 °
Period: 91.1 minutes
Semi major axis: 6706 km
RCS: Unknown
Launch date: January 25, 2026
Source: United States (US)
Launch site: AIR FORCE WESTERN TEST RANGE (AFWTR)
Your satellite tracking list
Your tracking list is empty




NASA's NSSDC Master Catalog

Two Line Element Set (TLE):
1 67572U 26016M   26040.50002314 -.00000950  00000-0 -42260-5 0  9994
2 67572  97.2783  99.5352 0001048  98.1897 203.8849 15.80801593  3404
Source of the keplerian elements: AFSPC